GW0189 Weather Reports


Display with metric or nautical units.
time (UTC)temp
F
wind
direction
speed
MPH
gust
MPH
rain 1hr
in
rain 24hr
in
rain mn
in
humidity
%
barometer
mb
20260507040034 53 284 16.0 24.0 0.00 0.00 0.00 89 1019.2
20260507034538 53 265 18.0 25.0 0.00 0.00 0.00 89 1019.1
20260507033040 53 288 17.0 24.0 0.00 0.00 0.00 89 1018.9
20260507031532 53 304 16.0 25.0 0.00 0.00 0.00 89 1018.8
20260507030032 54 320 17.0 28.0 0.00 0.00 0.00 88 1018.8
20260507024536 54 288 18.0 27.0 0.00 0.00 0.00 87 1018.7
20260507023035 54 277 16.0 25.0 0.00 0.00 0.00 87 1019.0
20260507021534 55 276 13.0 23.0 0.00 0.00 0.00 86 1018.8
20260507020035 55 294 19.0 27.0 0.00 0.00 0.00 86 1018.7
20260507014542 55 275 17.0 24.0 0.00 0.00 0.00 85 1018.8
20260507013034 56 341 17.0 27.0 0.00 0.00 0.00 84 1018.8
20260507011538 56 278 17.0 31.0 0.00 0.00 0.00 83 1019.0
20260507010035 57 311 16.0 26.0 0.00 0.00 0.00 83 1019.0
20260507004537 57 288 16.0 26.0 0.00 0.00 0.00 83 1019.2
20260507003030 57 314 17.0 29.0 0.00 0.00 0.00 83 1019.1
20260507001540 57 272 16.0 23.0 0.00 0.00 0.00 82 1019.3
20260507000032 58 290 15.0 24.0 0.00 0.00 0.00 82 1019.2
20260506234533 58 288 16.0 24.0 0.00 0.00 0.00 82 1019.1
20260506233031 59 295 15.0 24.0 0.00 0.00 0.00 81 1019.3
20260506231534 58 294 15.0 25.0 0.00 0.00 0.00 82 1019.3
20260506230037 58 289 15.0 25.0 0.00 0.00 0.00 82 1019.6
20260506224534 58 319 17.0 23.0 0.00 0.00 0.00 81 1019.7
20260506223033 59 290 15.0 26.0 0.00 0.00 0.00 81 1020.0
20260506221531 59 308 17.0 25.0 0.00 0.00 0.00 80 1020.0
20260506220038 60 254 14.0 23.0 0.00 0.00 0.00 79 1020.3
20260506214531 60 277 15.0 23.0 0.00 0.00 0.00 79 1020.6
20260506213032 61 253 14.0 20.0 0.00 0.00 0.00 79 1020.7
20260506211533 61 294 12.0 19.0 0.00 0.00 0.00 78 1020.5
20260506210032 60 288 11.0 18.0 0.00 0.00 0.00 79 1020.8
20260506204534 60 298 12.0 17.0 0.00 0.00 0.00 78 1020.7
20260506203031 61 298 10.0 18.0 0.00 0.00 0.00 78 1020.9
20260506201532 61 360 11.0 16.0 0.00 0.00 0.00 79 1020.9
20260506200033 61 286 10.0 17.0 0.00 0.00 0.00 79 1021.0
20260506194532 61 273 9.0 17.0 0.00 0.00 0.00 79 1021.2
20260506193031 61 360 8.0 15.0 0.00 0.00 0.00 79 1021.2
20260506191534 60 256 7.0 13.0 0.00 0.00 0.00 79 1021.2
20260506190034 60 254 6.0 13.0 0.00 0.00 0.00 78 1021.3
20260506184534 60 290 8.0 14.0 0.00 0.00 0.00 79 1021.3
20260506183030 60 295 6.0 14.0 0.00 0.00 0.00 80 1021.2
20260506181532 59 296 6.0 13.0 0.00 0.00 0.00 80 1021.3
20260506180032 59 294 8.0 12.0 0.00 0.00 0.00 80 1021.1
20260506174532 58 242 7.0 13.0 0.00 0.00 0.00 81 1021.1
20260506173036 58 314 9.0 13.0 0.00 0.00 0.00 80 1021.0
20260506171533 58 315 7.0 11.0 0.00 0.00 0.00 80 1021.4
20260506170036 57 289 5.0 10.0 0.00 0.00 0.00 80 1021.3
20260506164534 57 256 4.0 9.0 0.00 0.00 0.00 81 1021.0
20260506163037 56 282 4.0 9.0 0.00 0.00 0.00 82 1020.9
20260506161535 57 308 6.0 11.0 0.00 0.00 0.00 81 1021.0
20260506160031 56 304 6.0 8.0 0.00 0.00 0.00 82 1020.8
20260506154533 55 282 4.0 11.0 0.00 0.00 0.00 82 1021.0
20260506153031 56 306 4.0 8.0 0.00 0.00 0.00 82 1020.9
20260506151533 56 288 6.0 12.0 0.00 0.00 0.00 84 1020.8
20260506150034 55 300 6.0 10.0 0.00 0.00 0.00 84 1020.5
20260506144540 55 309 7.0 10.0 0.00 0.00 0.00 84 1020.5
20260506143032 55 264 6.0 10.0 0.00 0.00 0.00 85 1020.6
20260506141536 54 298 7.0 12.0 0.00 0.00 0.00 85 1020.4
20260506140032 54 297 5.0 8.0 0.00 0.00 0.00 86 1020.2
20260506134530 54 288 4.0 8.0 0.00 0.00 0.00 87 1020.0
20260506133040 53 302 3.0 8.0 0.00 0.00 0.00 87 1020.0
20260506131532 53 301 4.0 8.0 0.00 0.00 0.00 87 1019.9
20260506130031 54 323 5.0 9.0 0.00 0.00 0.00 87 1019.9
20260506124531 54 297 6.0 9.0 0.00 0.00 0.00 87 1019.7
20260506123030 54 279 4.0 8.0 0.00 0.00 0.00 86 1019.7
20260506121530 53 302 6.0 10.0 0.00 0.00 0.00 86 1019.6
20260506120034 53 321 5.0 9.0 0.00 0.00 0.00 87 1019.5
20260506114533 53 314 7.0 10.0 0.00 0.00 0.00 87 1019.5
20260506113032 53 300 6.0 9.0 0.00 0.00 0.00 87 1019.4
20260506111531 54 298 6.0 11.0 0.00 0.00 0.00 87 1019.3
20260506110030 54 315 6.0 11.0 0.00 0.00 0.00 87 1019.1
20260506104533 53 292 7.0 12.0 0.00 0.00 0.00 87 1019.1
20260506103032 53 292 5.0 11.0 0.00 0.00 0.00 87 1019.0
20260506101532 53 300 5.0 9.0 0.00 0.00 0.00 88 1018.8
20260506100031 54 260 4.0 8.0 0.00 0.00 0.00 88 1018.9
20260506094531 53 290 4.0 9.0 0.00 0.01 0.00 87 1019.0
20260506093037 53 282 5.0 10.0 0.00 0.01 0.00 87 1018.9
20260506091532 54 296 5.0 9.0 0.00 0.01 0.00 87 1018.9
20260506090032 54 279 5.0 9.0 0.00 0.01 0.00 87 1019.0
20260506084536 54 286 4.0 11.0 0.00 0.04 0.00 87 1018.9
20260506083037 54 360 7.0 12.0 0.00 0.04 0.00 87 1019.1
20260506081533 54 283 8.0 12.0 0.00 0.04 0.00 87 1019.2
20260506073032 54 294 5.0 9.0 0.00 0.07 0.00 87 1018.9
20260506071531 54 304 6.0 11.0 0.00 0.07 0.00 87 1018.8
20260506061532 54 298 8.0 13.0 0.00 0.08 0.07 87 1018.2
20260506044541 55 360 7.0 11.0 0.00 0.11 0.07 87 1017.9
20260506043032 55 282 7.0 11.0 0.00 0.11 0.07 87 1017.9
20260506041546 55 360 7.0 12.0 0.00 0.11 0.07 87 1017.7